Home > Weather > Thiès > Past weeks

Flag for Senegal Past Weather in Thiès, Senegal — Yesterday and Last 2 Weeks

Now
72 °F

Passing clouds.


Feels Like: 72 °F
Forecast: N/A
Wind: 22 mph from North

Location: Dakar / Yoff

Current Time: May 24, 2016 at 7:54:12 PM

Latest Report: May 24, 2016 at 7:00 PM


Visibility: N/A

Pressure: 29.92 "Hg

Humidity: 78%

Dew Point: 64 °F

Location of ThièsLocation

Past Weather in Thiès — Graph

°F

Thiès Temperature Yesterday

Maximum temperature yesterday: 77 °F (at 2:00 PM)
Minimum temperature yesterday: 68 °F (at 5:30 AM)
Average temperature yesterday: 72 °F

High & Low Weather Summary for the Past Weeks

 TemperatureHumidityPressure
High86 °F (May 10, 5:00 PM)100% (May 18, 5:30 PM)30.04 "Hg (May 18, 5:30 PM)
Low66 °F (May 14, 6:00 AM)43% (May 10, 5:00 PM)29.83 "Hg (May 9, 7:00 PM)
Average71 °F82%29.96 "Hg
* Reported May 9 6:00 PM — May 24 6:30 PM, Thiès, Weather by CustomWeather, © 2016

Note: Actual official high and low records may vary slightly from our data, if they occured in-between our weather recording intervals... More about our weather records

Advertising

Thiès Weather History for the Previous 24 Hours

Scroll right to see more
 ConditionsComfort  
Time TempWeatherWind HumidityBarometerVisibility
6:30 PM
Tue, May 24
72 °FPassing clouds.22 mph78%29.92 "HgN/A
6:00 PM72 °FScattered clouds.22 mph78%29.92 "HgN/A
5:30 PM73 °FPartly sunny.22 mph74%29.95 "HgN/A
5:00 PM73 °FPartly sunny.22 mph74%29.95 "HgN/A
4:30 PM73 °FPartly sunny.20 mph74%29.95 "HgN/A
4:00 PM75 °FPartly sunny.21 mph69%29.98 "HgN/A
3:30 PM75 °FPartly sunny.21 mph69%29.98 "HgN/A
3:00 PM75 °FPartly sunny.20 mph74%29.98 "HgN/A
2:30 PM75 °FPartly sunny.21 mph69%29.98 "HgN/A
2:00 PM75 °FPartly sunny.20 mph69%30.01 "HgN/A
1:30 PM75 °FPartly sunny.23 mph74%30.01 "HgN/A
1:00 PM75 °FScattered clouds.21 mph69%30.04 "HgN/A
12:30 PM75 °FScattered clouds.22 mph69%30.04 "HgN/A
12:00 PM75 °FScattered clouds.20 mph74%30.04 "HgN/A
11:30 AM75 °FScattered clouds.22 mph69%30.04 "HgN/A
11:00 AM73 °FPartly sunny.18 mph78%30.04 "HgN/A
10:30 AM75 °FPartly sunny.18 mph74%30.04 "HgN/A
10:00 AM73 °FPartly sunny.18 mph78%30.04 "HgN/A
9:30 AM72 °FPartly sunny.17 mph83%30.04 "HgN/A
9:00 AM72 °FPartly sunny.16 mph83%30.04 "HgN/A
8:30 AM70 °FPartly sunny.14 mph88%30.01 "HgN/A
8:00 AM70 °FPartly sunny.15 mph88%30.01 "HgN/A
7:30 AM70 °FPartly sunny.12 mph88%30.01 "HgN/A
7:00 AM70 °FPartly sunny.13 mph88%30.01 "HgN/A
6:30 AM70 °FPassing clouds.12 mph88%29.98 "HgN/A
6:00 AM70 °FPassing clouds.12 mph88%29.98 "HgN/A
5:30 AM70 °FPassing clouds.10 mph88%29.98 "HgN/A
5:00 AM70 °FPassing clouds.10 mph88%29.98 "HgN/A
4:30 AM70 °FPassing clouds.9 mph88%29.98 "HgN/A
4:00 AM70 °FPassing clouds.9 mph88%29.98 "HgN/A
3:30 AM70 °FPassing clouds.9 mph88%29.98 "HgN/A
3:00 AM70 °FPassing clouds.12 mph88%29.98 "HgN/A
2:30 AM70 °FPassing clouds.10 mph88%29.98 "HgN/A
2:00 AM70 °FPassing clouds.9 mph88%30.01 "HgN/A
1:30 AM70 °FPassing clouds.12 mph83%30.01 "HgN/A
1:00 AM70 °FPassing clouds.13 mph83%30.01 "HgN/A
12:30 AM70 °FPassing clouds.15 mph83%30.04 "HgN/A
12:00 AM70 °FPassing clouds.15 mph83%30.04 "HgN/A
11:30 PM
Mon, May 23
70 °FThunderstorms. Overcast.N/A83%30.04 "HgN/A
11:00 PM70 °FPassing clouds.13 mph83%30.04 "HgN/A
10:30 PM70 °FPassing clouds.13 mph83%30.04 "HgN/A
10:00 PM70 °FPassing clouds.14 mph88%30.01 "HgN/A
9:30 PM70 °FPassing clouds.14 mph88%30.01 "HgN/A
9:00 PM70 °FPassing clouds.14 mph88%30.01 "HgN/A
8:30 PM70 °FPassing clouds.14 mph88%29.98 "HgN/A
8:00 PM70 °FPassing clouds.15 mph83%N/AN/A
7:30 PM70 °FPassing clouds.17 mph88%29.98 "HgN/A
7:00 PM72 °FPassing clouds.17 mph83%29.98 "HgN/A
Weather by CustomWeather, © 2016

See weather overviewHow to use our weather pages